Regional Weather Roundup
Issued by NWS Little Rock, AR

Home | Current Version | Previous Version | Graphics & Text | Print | Product List | Glossary On
Versions: 1 2 3 4 5 6 7 8 9 10 11 12 13 14 15 16 17 18 19 20 21 22 23 24 25 26 27 28 29 30 31 32 33 34 35 36 37 38 39 40 41 42 43 44 45 46 47 48 49 50
000
ASUS44 KLZK 290805
RWRLZK

WEATHER ROUNDUP FOR ARKANSAS
NATIONAL WEATHER SERVICE LITTLE ROCK AR
300 AM CDT TUE JUL 29 2014

NOTE: "FAIR" INDICATES FEW OR NO CLOUDS BELOW 12,000 FEET WITH NO
SIGNIFICANT WEATHER AND/OR OBSTRUCTIONS TO VISIBILITY.

ARZ001-003-010-029-290900-
NORTHWEST ARKANSAS

CITY           SKY/WX    TMP DP  RH WIND       PRES   REMARKS
FAYETTEVILLE   CLEAR     59  58  96 CALM      30.16F
FORT SMITH     CLEAR     70  61  73 E3        30.11S
HARRISON       CLEAR     61  58  90 SW3       30.17S
BENTONVILLE    CLEAR     66  55  68 E3        30.16F
ROGERS         CLEAR     62  57  83 CALM      30.17F
SILOAM SPGS    CLEAR     64  54  68 CALM      30.16F
HIGHFILL       CLEAR     63  57  81 N3        30.16F
$$

ARZ004-005-016-290900-
NORTH CENTRAL ARKANSAS

CITY           SKY/WX    TMP DP  RH WIND       PRES   REMARKS
BATESVILLE     CLOUDY    70  61  73 N3        30.11S
FLIPPIN        MOCLDY    66  57  72 CALM      30.15S
MTN HOME       PTCLDY    65  58  78 NE3       30.13S
$$

ARZ040-041-290900-
WEST CENTRAL ARKANSAS

CITY           SKY/WX    TMP DP  RH WIND       PRES   REMARKS
MENA           CLEAR     64  63  94 CALM      30.13S
MOUNT IDA      CLEAR     64  63  96 CALM      30.09S
$$

ARZ009-017-025-026-028-290900-
NORTHEAST ARKANSAS

CITY           SKY/WX    TMP DP  RH WIND       PRES   REMARKS
CORNING        FAIR      64  61  88 N7        30.11S
JONESBORO      PTCLDY    68  58  70 NE6       30.09S
NEWPORT        CLEAR     69  64  84 NE7       30.10S
WALNUT RIDGE   PTCLDY    66  57  72 N7        30.09F
BLYTHEVILLE    PTCLDY    65  62  90 N7        30.08S
$$

ARZ022-023-033-042-044-290900-
CENTRAL ARKANSAS

CITY           SKY/WX    TMP DP  RH WIND       PRES   REMARKS
LITTLE ROCK    CLEAR     72  63  73 N7        30.08R
N LITTLE ROCK    N/A     71  64  79 N8        30.08R
JACKSONVILLE   PTCLDY    71  63  76 N6        30.08R
SEARCY         PTCLDY    71  64  78 N9        30.09S
HOT SPRINGS    CLEAR     71  64  78 VRB3      30.08F
RUSSELLVILLE   CLEAR     68  62  81 CALM      30.10S
CLINTON        MOCLDY    64  64 100 CALM      30.13R
$$

ARZ036-290900-
EAST ARKANSAS

CITY           SKY/WX    TMP DP  RH WIND       PRES   REMARKS
WEST MEMPHIS   MOCLDY    72  66  81 N7        30.06R
$$

ARZ050-053-066-070-073-290900-
SOUTHWEST ARKANSAS

CITY           SKY/WX    TMP DP  RH WIND       PRES   REMARKS
ARKADELPHIA    FAIR      68  68 100 CALM      30.07S
CAMDEN         CLEAR     66  64  94 CALM      30.06S FOG
TEXARKANA      CLEAR     71  66  84 CALM      30.09S
EL DORADO      CLEAR     67  66  97 CALM      30.07S
DE QUEEN       CLEAR     68  65  90 CALM      30.07S
$$

ARZ056-057-069-290900-
SOUTHEAST ARKANSAS

CITY           SKY/WX    TMP DP  RH WIND       PRES   REMARKS
PINE BLUFF     CLEAR     70  65  84 W3        30.05F
STUTTGART      CLEAR     70  64  83 N9        30.06S
MONTICELLO     CLEAR     68  64  87 W3        30.04F

$$




USA.gov is the U.S. government's official web portal to all federal, state and local government web resources and services.